www.pogodaiklimat.ru

Погода и климат >> Архив погоды >> Сербия >> Лозница


ПОГОДА в Лознице

  • Прогноз погоды в Лознице
  • Монитор погоды в Лознице

АРХИВ ПОГОДЫ в Лознице

Время (UTC), дата Ветер
(напр.,м/с)
 
Видим.   Явления Облачность Т
(С)
Тd
(С)
f
(%)
Тe
(С)
Тes
(С)
Комфортность P
(гПа)
Po
(гПа)
Тmin
(С)
Tmax
(С)
R
(мм)
R24
(мм)
S
(см)
13 13.07 С 1 20 км 10/0
[Ac As]
+22.2 +15.3 65 +26 +31 душно 1010.1 995.9
14 13.07 С 2 20 км 10/0
[Ac As]
+21.6 +16.0 70 +25 +28 комфорт 1010.1 995.9
15 13.07 С 2 20 км 10/0
[Ac As]
+21.4 +16.1 72 +25 +27 комфорт 1010.1 995.9
16 13.07 СЗ 2 10 км гроза без осадков 10/10 1000 м
[Cb calv]
+20.8 +16.5 76 +25 +25 комфорт 1010.8 996.6
17 13.07 СЗ 3 4000 м слаб. дождь {гроза} 10/0
[As op]
+17.4 +14.5 83 +17 +18 1011.7 997.3
18 13.07 Ю 2 4000 м слаб. дождь {гроза} 10/0 600 м
[As op]
+16.4 +14.8 90 +16 +16 1012.2 997.7 +22.6 4
19 13.07 ЮЗ 2 4000 м слаб. дождь 10/0
[As op]
+16.0 +14.4 90 +16 +16 1012.3 997.8
20 13.07 Ю 1 10 км {дождь} 10/0
[Ac As]
+16.0 +14.0 88 +17 +17 1012.2 997.7
21 13.07 ЮЗ 1 10 км {дождь} 10/0
[Ac As]
+15.9 +13.6 86 +17 +17 1012.7 998.2
22 13.07 штиль 0 20 км 10/0
[Ac As]
+15.8 +13.4 86 +16 +16 1012.9 998.4
23 13.07 З 1 10 км 10/0
[Ac As]
+15.9 +13.6 86 +17 +17 1012.7 998.2
00 14.07 штиль 0 10 км 8/8 1000 м
[Sc]
+15.5 +13.9 90 +15 +15 1012.7 998.2 4
01 14.07 З 1 10 км 8/8 1000 м
[Sc]
+15.3 +13.5 89 +16 +16 1012.0 997.5
02 14.07 З 1 10 км 8/8 1000 м
[Sc]
+15.2 +13.1 87 +16 +16 1011.7 997.0
03 14.07 З 2 10 км 10/10 1000 м
[Sc]
+15.7 +13.6 87 +16 +16 1011.5 997.0
04 14.07 З 2 10 км слаб. дождь 10/10 1000 м
[Sc]
+15.6 +14.0 90 +15 +15 1011.5 997.0
05 14.07 З 1 10 км {дождь} 10/10 1000 м
[Sc]
+15.6 +14.0 90 +16 +16 1011.5 997.0
06 14.07 З 2 10 км {дождь} 10/6 1000 м
[Sc Ac As]
+16.2 +14.7 91 +16 +17 1011.4 997.0 +15.2 4
07 14.07 ЮЗ 2 10 км 10/6 1000 м
[Sc Ac As]
+17.1 +15.2 89 +17 +18 1011.5 997.1
08 14.07 З 3 10 км 10/6 1000 м
[Sc Ac As]
+18.3 +15.4 83 +19 +20 1011.6 997.2
09 14.07 СЗ 3 10 км 9/6 1000 м
[Cu Sc Ac As]
+19.6 +15.3 76 +22 +24 комфорт 1011.6 997.3
10 14.07 З 3 10 км 6/6 1000 м
[Cu Sc]
+20.2 +15.8 76 +23 +29 комфорт 1011.4 997.2
11 14.07 СЗ 2 20 км 8/8 1000 м
[Cu Sc]
+21.2 +14.9 67 +24 +28 комфорт 1011.2 997.0
12 14.07 СЗ 3 20 км 8/8 1000 м
[Cu Sc]
+22.1 +14.5 62 +25 +28 комфорт 1011.0 996.9
13 14.07 ЮЗ 3 20 км 8/6 1000 м
[Cu Sc Ac trans]
+22.7 +14.6 60 +26 +30 жарко 1010.9 996.8
14 14.07 З 3 20 км 6/3 1000 м
[Cu med, cong Ac trans]
+22.9 +14.5 59 +27 +31 душно 1010.7 996.6
15 14.07 ЮЗ 3 20 км 5/4 1000 м
[Cu med, cong Ci sp]
+23.2 +14.5 58 +27 +30 душно 1010.4 996.3
16 14.07 З 2 20 км {дождь} 9/9 1000 м
[Cu Sc]
+22.1 +16.4 70 +26 +27 душно 1010.5 996.4
17 14.07 ЮЗ 2 20 км в посл. час гроза {дождь} 8/4 1000 м
[Sc Ac As]
+18.8 +15.6 82 +20 +21 1011.0 996.7
18 14.07 З 2 20 км {гроза, дождь} 8/0 1000 м
[Ac trans Cs]
+18.7 +15.4 81 +20 +20 1011.2 996.9 +23.5 1
19 14.07 ЮЗ 2 20 км 6/0
[Ac trans Cs]
+17.8 +15.6 87 +18 +18 1011.6 997.3
20 14.07 ЮЗ 2 20 км 3/0
[Ci sp]
+17.2 +15.4 89 +18 +18 1012.0 997.6
21 14.07 ЮЗ 1 20 км 1/0
[Ci sp]
+16.3 +14.8 91 +17 +17 1012.2 997.8
22 14.07 Ю 1 20 км ясно +16.0 +14.7 92 +17 +17 1012.2 997.8
23 14.07 ЮЗ 1 20 км ясно +15.5 +14.4 93 +16 +16 1012.1 997.7
00 15.07 Ю 1 10 км ясно +15.0 +13.8 93 +15 +15 1012.0 997.6
01 15.07 Ю 1 10 км ясно +14.7 +13.5 93 +15 +15 1011.7 997.3
02 15.07 ЮЗ 1 500 м туман ?/? +14.5 +13.5 94 +15 +15 1011.7 997.3
03 15.07 ЮЗ 1 200 м туман ?/? +14.5 +13.5 94 +15 +15 1011.8 997.4
04 15.07 ЮЗ 2 500 м туман ?/? +14.6 +13.4 93 +14 +14 1011.9 997.5
05 15.07 З 2 1000 м в посл. час туман 10/10 600 м
[St]
+14.8 +13.7 93 +14 +14 1012.2 997.8
06 15.07 З 2 2000 м дымка {туман} 8/8 600 м
[Sc]
+15.8 +14.7 93 +16 +17 1012.1 997.8 +14.1
07 15.07 З 3 10 км 4/4 1000 м
[Sc]
+18.0 +15.6 86 +18 +23 1012.2 998.0
08 15.07 З 2 15 км 4/4 1000 м
[Cu Sc]
+19.7 +15.1 75 +22 +30 комфорт 1015.1 998.1
09 15.07 С 1 20 км 8/8 1000 м
[Cu Sc]
+21.1 +14.9 68 +24 +28 комфорт 1012.3 998.3
10 15.07 СВ 2 20 км 6/6 1000 м
[Cu Sc]
+22.4 +14.7 62 +26 +33 жарко 1012.1 998.2
11 15.07 С 2 20 км 6/6 1000 м
[Cu Sc]
+23.2 +14.2 57 +27 +34 душно 1011.9 998.1
12 15.07 СЗ 2 20 км 6/6 1000 м
[Cu Sc]
+23.5 +14.5 57 +26 +33 жарко 1011.6 997.8
13 15.07 С 2 20 км 8/8 1000 м
[Cu Sc]
+22.2 +11.7 51 +24 +27 комфорт 1011.8 997.6
14 15.07 С 3 20 км 6/6 1000 м
[Cu Sc]
+24.2 +14.2 54 +27 +30 жарко 1011.6 997.5
15 15.07 СВ 2 20 км 6/6 1000 м
[Cu Sc]
+23.9 +13.5 52 +26 +29 жарко 1011.6 997.5
16 15.07 С 2 20 км 8/0
[Cs]
+23.4 +12.7 51 +26 +29 жарко 1011.3 997.2
17 15.07 С 1 20 км 8/0
[Ac trans Cs]
+23.0 +12.9 53 +26 +27 жарко 1011.4 997.3
18 15.07 З 1 20 км 8/0
[Ac trans Cs]
+21.6 +15.5 68 +25 +25 комфорт 1011.8 997.6 +24.5
19 15.07 ЮЗ 1 20 км 6/0
[Cs]
+19.9 +15.7 77 +23 +23 комфорт 1012.3 998.0
20 15.07 ЮЗ 1 20 км 5/0
[Cs]
+18.8 +15.3 80 +21 +21 комфорт 1012.6 998.3
21 15.07 ЮЗ 2 20 км 6/0
[Cs]
+18.0 +15.0 83 +19 +19 1013.1 998.7
22 15.07 ЮЗ 1 20 км 5/0
[Cs]
+17.3 +14.7 85 +18 +18 1013.3 998.8
23 15.07 ЮЗ 1 20 км 6/0
[Cs]
+16.5 +14.6 89 +17 +17 1013.3 998.8
00 16.07 ЮЗ 1 20 км 4/0
[Cs]
+16.1 +14.5 90 +17 +17 1013.3 998.8
01 16.07 Ю 1 20 км 3/0
[Ac trans]
+15.3 +13.8 91 +16 +16 1013.3 998.7
02 16.07 ЮЗ 1 20 км 3/0
[Ac trans]
+15.0 +13.5 91 +15 +15 1013.2 998.6
03 16.07 Ю 1 20 км 3/0
[Ac trans]
+13.8 +12.4 91 +14 +14 1013.0 998.4
04 16.07 ЮЗ 1 20 км 4/0
[Ci sp]
+13.8 +12.4 91 +14 +14 1013.2 998.6
05 16.07 ЮЗ 1 20 км 3/0
[Ci sp]
+14.8 +13.1 90 +15 +17 1013.2 998.8
06 16.07 ЮЗ 1 20 км 3/0
[Ci sp]
+16.1 +14.2 88 +17 +22 1013.2 999.0 +13.5
07 16.07 ЮЗ 1 20 км 4/0
[Ci sp]
+19.1 +15.0 77 +22 +31 комфорт 1013.3 999.0
08 16.07 З 1 20 км 1/1 1000 м
[Cu med, cong]
+21.5 +14.2 63 +24 +38 комфорт 1013.1 999.0
09 16.07 С 1 20 км 3/3 1000 м
[Cu med, cong]
+23.2 +10.6 45 +25 +38 комфорт 1013.1 999.0
10 16.07 С 1 20 км 4/4 1000 м
[Cu med, cong]
+24.6 +10.1 40 +26 +38 жарко 1012.9 998.9
11 16.07 СВ 3 20 км 5/5 1000 м
[Cu Sc]
+25.2 +8.2 34 +26 +33 жарко 1012.6 998.6
12 16.07 СВ 2 20 км 6/6 1000 м
[Cu Sc]
+24.8 +8.1 34 +25 +32 комфорт 1012.3 998.3
13 16.07 СВ 2 20 км 8/8 1000 м
[Cu Sc]
+25.3 +8.9 35 +26 +29 жарко 1012.0 998.0
14 16.07 С 1 20 км 8/8 1000 м
[Cu Sc]
+25.8 +8.7 34 +26 +29 жарко 1011.6 997.7
15 16.07 СЗ 1 20 км 5/5 1000 м
[Cu Sc]
+25.7 +10.3 38 +27 +30 жарко 1011.6 997.7
16 16.07 ЮВ 1 20 км 3/3 1000 м
[Sc]
+23.6 +10.4 43 +25 +27 комфорт 1011.7 997.7
17 16.07 Ю 1 20 км 4/4 1000 м
[Sc]
+23.7 +12.1 48 +25 +26 комфорт 1011.7 997.7
18 16.07 ЮЗ 1 20 км 3/3 1000 м
[Sc]
+22.7 +15.5 64 +27 +27 душно 1011.7 997.7 +26.2
19 16.07 ЮЗ 1 20 км ясно +20.5 +14.6 69 +24 +24 комфорт 1012.2 998.0
20 16.07 ЮЗ 2 20 км ясно +19.0 +13.3 70 +21 +21 комфорт 1012.9 998.7
21 16.07 ЮЗ 2 20 км ясно +17.5 +13.4 77 +18 +18 1013.2 998.9
22 16.07 Ю 1 20 км ясно +16.4 +14.1 86 +17 +17 1013.6 999.2
23 16.07 Ю 2 20 км ясно +15.4 +13.6 89 +15 +15 1013.9 999.4
00 17.07 Ю 1 20 км ясно +14.5 +13.0 91 +15 +15 1013.9 999.4
01 17.07 Ю 1 20 км ясно +14.4 +13.1 92 +15 +15 1013.6 999.1
02 17.07 Ю 1 20 км 5/0
[Ac trans]
+13.8 +12.6 92 +14 +14 1013.6 999.1
03 17.07 Ю 1 20 км 5/0
[Ac trans]
+13.6 +12.4 92 +14 +14 1013.8 999.3
04 17.07 ЮЗ 1 20 км 4/0
[Ac trans]
+14.1 +12.6 91 +14 +15 1013.9 999.4
05 17.07 ЮЗ 2 20 км 3/0
[Ac trans]
+15.5 +13.0 85 +15 +17 1014.1 999.7
06 17.07 ЮЗ 2 20 км 4/0
[Ac trans]
+16.6 +12.8 78 +17 +20 1014.1 999.7 +13.5
07 17.07 З 2 20 км ясно +20.0 +13.5 66 +23 +31 комфорт 1014.0 999.8
08 17.07 З 2 20 км ясно +22.4 +12.4 53 +25 +38 комфорт 1013.9 999.8
09 17.07 З 2 20 км ясно +24.1 +12.6 49 +26 +42 жарко 1013.7 999.7
10 17.07 С 1 20 км 1/1 1000 м
[Cu med, cong]
+25.1 +12.1 44 +27 +46 жарко 1013.3 999.4
11 17.07 СЗ 2 20 км 4/4 1000 м
[Cu med, cong]
+25.7 +11.9 42 +27 +38 жарко 1012.9 999.1
12 17.07 С 2 20 км 4/4 1000 м
[Cu Sc]
+26.3 +13.7 46 +28 +39 жарко 1012.7 998.8
13 17.07 СЗ 2 20 км 4/4 1000 м
[Cu Sc]
+26.7 +14.2 46 +29 +38 жарко 1012.4 998.5
14 17.07 СЗ 3 20 км 5/5 1000 м
[Cu Sc]
+27.2 +13.8 44 +29 +34 жарко 1012.2 998.3
15 17.07 С 2 20 км 3/3
[Cu med, cong]
+27.3 +12.7 40 +29 +33 жарко 1012.0 998.1
16 17.07 С 2 20 км 1/1 1000 м
[Cu hum]
+27.2 +12.8 41 +29 +32 жарко 1011.8 997.9
17 17.07 С 2 20 км ясно +26.7 +12.5 41 +28 +29 жарко 1011.7 997.8
18 17.07 штиль 0 20 км 3/0
[Ci sp]
+24.6 +13.7 51 +27 +27 жарко 1011.7 997.7 +27.6
19 17.07 ЮЗ 1 20 км 3/0
[Ci sp]
+22.3 +14.7 62 +26 +26 жарко 1012.0 997.9
20 17.07 ЮЗ 1 20 км 3/0
[Ci sp]
+20.7 +15.3 71 +25 +25 комфорт 1012.4 998.2
21 17.07 Ю 1 20 км 3/0
[Ci sp]
+19.2 +15.4 79 +22 +22 комфорт 1012.6 998.3
22 17.07 Ю 1 20 км 1/0
[Ci sp]
+18.1 +15.6 85 +19 +19 1012.7 998.4
23 17.07 Ю 1 20 км 3/0
[Ci fib]
+16.9 +15.1 89 +18 +18 1015.1 998.4
00 18.07 Ю 1 10 км 3/0
[Ci fib]
+16.3 +14.7 90 +17 +17 1012.7 998.3
01 18.07 Ю 1 10 км 1/0
[Ci fib]
+15.8 +14.3 91 +16 +16 1012.5 998.1
02 18.07 Ю 1 10 км 3/0
[Ci fib]
+15.7 +14.6 93 +16 +16 1012.4 998.0
03 18.07 Ю 1 10 км ясно +14.9 +13.7 93 +15 +15 1012.5 998.1
04 18.07 ЮВ 1 10 км ясно +15.0 +13.7 92 +15 +16 1012.6 998.2
05 18.07 Ю 1 10 км 6/0
[Cs]
+16.5 +14.6 89 +17 +19 1012.9 998.6
06 18.07 З 1 15 км 6/0
[Cs]
+18.0 +14.6 81 +19 +24 1012.8 998.6 +14.6
07 18.07 З 1 20 км 6/0
[Cs]
+20.8 +15.0 69 +25 +34 комфорт 1012.8 998.6
08 18.07 З 1 20 км 6/0
[Cs]
+22.7 +15.2 63 +27 +40 душно 1012.8 998.7
09 18.07 Ю 1 20 км 4/0
[Cs]
+25.7 +14.8 51 +28 +46 жарко 1012.8 998.8
10 18.07 В 2 20 км 1/1 1000 м
[Cu hum]
+27.2 +12.4 40 +29 +45 жарко 1012.4 998.5
11 18.07 СВ 3 20 км 3/3 1000 м
[Cu med, cong]
+27.4 +12.9 41 +29 +40 жарко 1012.3 998.4
12 18.07 СВ 2 20 км 3/3 1000 м
[Cu med, cong]
+28.3 +12.7 38 +30 +42 жарко 1012.0 998.2
13 18.07 СВ 2 20 км 3/3 1000 м
[Cu med, cong]
+28.6 +14.9 43 +31 +41 жарко 1011.8 998.0
14 18.07 СВ 2 20 км 4/1 1000 м
[Cu med, cong Ac trans]
+28.9 +13.0 38 +30 +38 жарко 1011.2 997.4
15 18.07 СВ 2 20 км 3/0
[Ac trans]
+28.9 +13.0 38 +30 +36 жарко 1010.8 997.0
16 18.07 СВ 2 20 км 4/0
[Ac trans]
+28.9 +13.0 38 +30 +33 жарко 1010.8 997.0
17 18.07 СВ 1 20 км 8/0
[Ac As]
+27.4 +15.2 47 +30 +31 жарко 1011.1 997.2
18 18.07 З 2 20 км 9/8 1000 м
[Sc Ac As]
+25.6 +16.3 56 +29 +29 душно 1012.0 998.0 +29.0
19 18.07 ЮЗ 5
{12}
20 км гроза без осадков 10/8 1000 м
[Cb calv Ac As]
+22.2 +14.6 62 +26 +26 душно 1014.2 1000.0
20 18.07 Ю 2 10 км гроза, ливневой дождь 10/10 1000 м
[Cb cap]
+19.6 +16.2 81 +22 +22 комфорт 1015.5 1001.1
21 18.07 С 2 10 км слаб. дождь 10/0
[As op]
+18.5 +16.5 88 +20 +20 1015.8 1001.4
22 18.07 СЗ 1 10 км в посл. час дождь 8/0
[Ac As]
+18.0 +16.4 90 +19 +19 1015.9 1001.5
23 18.07 Ю 2 10 км 6/0
[Ac As]
+18.0 +16.4 90 +19 +19 1015.9 1001.5
00 19.07 ЮЗ 1 20 км {гроза, дождь} 6/0
[Ac As]
+17.5 +16.1 91 +19 +19 1015.5 1001.0 3
01 19.07 З 1 20 км 6/0
[Ac As]
+17.5 +16.1 91 +19 +19 1015.4 1000.9
02 19.07 В 1 20 км 6/0
[Ac As]
+17.3 +15.9 91 +18 +18 1015.7 1001.2
03 19.07 штиль 0 20 км 5/0
[Ac trans]
+16.9 +15.5 91 +17 +17 1016.0 1001.5
04 19.07 ЮЗ 1 20 км 6/0
[Ac As]
+16.9 +15.5 91 +18 +18 1016.5 1002.0
05 19.07 ЮЗ 2 20 км 6/0
[Ac As]
+16.8 +15.2 90 +17 +18 1016.6 1002.2
06 19.07 З 2 20 км 6/0
[Cs]
+17.8 +16.1 90 +18 +22 1016.8 1002.5 +16.8 3
07 19.07 Ю 1 20 км 4/0
[Cs]
+21.9 +17.7 77 +26 +36 душно 1017.0 1002.8
08 19.07 Ю 1 20 км 4/0
[Cs]
+23.6 +18.2 72 +28 +41 душно 1017.1 1003.0
09 19.07 СЗ 1 20 км 3/3 1000 м
[Cu med, cong]
+24.6 +15.3 56 +28 +41 душно 1017.2 1003.2
10 19.07 С 2 20 км 3/3 1000 м
[Cu med, cong]
+25.5 +14.0 49 +28 +41 жарко 1017.1 1003.2
11 19.07 СВ 2 20 км 4/4 1000 м
[Cu med, cong]
+26.4 +14.9 49 +29 +40 жарко 1016.9 1003.1
12 19.07 СВ 1 20 км 4/4 1000 м
[Cu med, cong]
+27.9 +16.9 51 +32 +44 душно 1016.2 1002.3
13 19.07 СВ 2 20 км 4/4 1000 м
[Cu Sc]
+27.5 +15.6 48 +30 +39 жарко 1015.9 1002.0
14 19.07 С 2 20 км ясно +27.9 +15.1 46 +31 +41 душно 1015.4 1001.5
15 19.07 СЗ 1 20 км ясно +28.7 +14.8 43 +31 +39 жарко 1015.0 1001.2
16 19.07 С 1 20 км ясно +28.3 +15.4 45 +31 +35 душно 1015.0 1001.2
17 19.07 С 1 20 км ясно +27.9 +15.6 47 +31 +32 душно 1015.4 1001.5
18 19.07 штиль 0 20 км ясно +25.1 +17.4 62 +29 +29 душно 1015.7 1001.7 +28.7
19 19.07 ЮЗ 1 20 км ясно +23.3 +17.7 71 +29 +29 душно 1016.3 1002.2
20 19.07 Ю 1 20 км ясно +21.7 +17.3 76 +26 +26 душно 1017.2 1003.0
21 19.07 ЮЗ 1 20 км ясно +19.3 +17.0 87 +22 +22 комфорт 1017.6 1003.3
22 19.07 ЮЗ 1 20 км ясно +19.5 +17.4 88 +23 +23 комфорт 1017.7 1003.4
23 19.07 Ю 1 20 км ясно +18.9 +17.2 90 +21 +21 комфорт 1017.7 1003.4
00 20.07 Ю 1 20 км ясно +18.4 +16.8 90 +20 +20 1017.8 1003.4
01 20.07 Ю 1 20 км ясно +17.6 +16.2 91 +19 +19 1017.4 1003.0
02 20.07 ЮВ 1 20 км ясно +16.7 +15.6 93 +18 +18 1017.6 1003.2
03 20.07 Ю 1 20 км ясно +16.5 +15.2 92 +17 +17 1018.0 1003.5
05 20.07 ЮВ 1 20 км ясно +18.2 +16.2 88 +20 +22 1018.5 1004.1
06 20.07 З 1 20 км 1/0
[Ci fib]
+19.9 +17.3 85 +24 +29 комфорт 1018.7 1004.4 +16.6
07 20.07 ЮЗ 1 20 км ясно +22.3 +17.3 73 +27 +37 душно 1018.9 1004.7
08 20.07 ЮЗ 1 20 км ясно +25.1 +18.6 67 +30 +44 душно 1018.7 1004.5
09 20.07 СЗ 1 20 км 1/1
[Cu hum]
+26.9 +17.8 57 +31 +48 душно 1018.4 1004.4
10 20.07 С 1 20 км 3/3
[Cu med, cong]
+28.5 +18.3 54 +33 +48 очень
душно
1018.1 1004.3
11 20.07 СВ 2 20 км 3/3
[Cu med, cong]
+29.2 +17.6 50 +34 +46 очень
душно
1018.2 1004.2
12 20.07 В 1 20 км 3/3
[Cu med, cong]
+29.4 +16.8 47 +33 +47 душно 1017.8 1003.9

 

Местоположение метеостанции Лозница (Сербия): широта 44.55 долгота 19.23 высота над уровнем моря 122 м.

В архиве по умолчанию представлена погода в Лознице за последнюю неделю. Архивные данные за месяц целиком и за предыдущие месяцы, начиная с января 2011 года, Вы можете получить, выбрав интересующий диапазон дат из раскрывающегося списка и нажав кнопку "Ввод!".


*Определитесь, кто Вы:
робот инопланетянин человек

Внимание! Время в таблицах - всемирное. Для получения местного времени необходимо прибавить поправку, которая равна 1 ч.

Смотрите также архив погоды в соседних городах и на ближайших метеорологических станциях:

Погода в Тузле (Босния и Герцеговина) (42 км)
Погода в Валево (Сербия) (60 км)
Погода в Сремска-Митровице (Сербия) (66 км)
Погода в Градачаце (Босния и Герцеговина) (73 км)
Погода в Градиште (Хорватия) (79 км)
Погода в Белград аэропорту (Сербия) (88 км)
Погода в Сараево (Босния и Герцеговина) (99 км)
Погода в Златиборе (Сербия) (99 км)
Погода в Нови-Саде (Сербия) (100 км)
Погода в Белграде (Сербия) (102 км)

Пояснения к столбцам:

Ветер - указаны скорость ветра в м/с - средняя за 10 мин, порывы в срок и между сроками (в фигурных скобках) и направление, откуда дует ветер: С - северный, СВ - северо-восточный, В - восточный, ЮВ - юго-восточный, Ю - южный, ЮЗ - юго-западный, З - западный, СЗ - северо-западный.
Видимость - горизонтальная дальность видимости в метрах или километрах. При видимости от 1 до 10 км при отсутствии осадков обычно наблюдается дымка, при ухудшении видимости до 1 км и менее - туман. В сухую погоду видимость может ухудшаться дымом, пылью или мглою.
Явления - указаны атмосферные явления, наблюдавшиеся в срок или в последний час перед сроком; фигурными скобками обозначены явления, наблюдавшиеся между сроками (за 1-3 часа до срока); квадратными скобками обозначены град или гололедные отложения с указанием их диаметра в мм.
Облачность - указаны через наклонную черту общая и нижняя облачность в баллах и высота нижней границы облаков в метрах; квадратными скобками обозначены формы облаков: Ci - перистые, Cs - перисто-слоистые, Cc - перисто-кучевые, Ac - высококучевые, As - высокослоистые, Sc - слоисто-кучевые, Ns - слоисто-дождевые, Cu - кучевые, Cb - кучево-дождевые. Подробнее классификацию облаков см. в Атласе облаков (PDF).
T - Температура воздуха - температура, измеренная на высоте 2 м над землей.
Td - Температура точки росы - температура, при понижении до которой содержащийся в воздухе водяной пар достигнет насыщения.
f - Относительная влажность воздуха - влажноcть воздуха, измеренная на высоте 2 м над землей.
Te - Эффективная температура - температура, которую ощущает одетый по сезону человек в тени. Характеристика душности погоды. При расчете учитывается влияние влажности воздуха и скорости ветра на теплоощущения человека.
Tes - Эффективная температура на солнце - температура, которую ощущает человек, с поправкой на солнечный нагрев. Характеристика знойности погоды. Зависит от высоты солнца над горизонтом, облачности и скорости ветра. Ночью, в пасмурную погоду, а также при ветре 12 м/с и более поправка равна нулю.
P - Атмосферное давление - приведенное к уровню моря атмосферное давление.
Po - Атмосферное давление - измеренное на уровне метеостанции атмосферное давление.
Tmin - Минимальная температура - минимум температуры воздуха на высоте 2 м над землей.
Tmax - Максимальная температура - максимум температуры воздуха на высоте 2 м над землей.
R - Количество осадков - Количество выпавших осадков за период времени, мм. При наведении курсора мыши на число - период времени, за который выпало указанное количество осадков.
R24 - Количество осадков - Количество выпавших осадков за 24 часа, мм.
S - Снежный покров - Высота снежного покрова, см. При наведении курсора мыши на число - состояние снежного покрова и степень покрытия местности в баллах.